| time (UTC) | temp C | wind direction | speed KPH | gust KPH | rain 1hr cm | rain 24hr cm | rain mn cm | humidity % | barometer mb |
| 20260502151520 | 16 | 281 | 25.7 | 41.8 | 0.00 | 0.00 | 0.00 | 39 | 1008.7 |
| 20260502123041 | 1 | 176 | 0.0 | 3.2 | 0.00 | 0.00 | 0.00 | 85 | 1010.2 |
| 20260502121539 | 0 | 164 | 0.0 | 1.6 | 0.00 | 0.00 | 0.00 | 85 | 1010.2 |
| 20260502120138 | 0 | 161 | 0.0 | 3.2 | 0.00 | 0.00 | 0.00 | 85 | 1010.3 |
| 20260502114538 | -1 | 205 | 1.6 | 6.4 | 0.00 | 0.00 | 0.00 | 85 | 1010.2 |
| 20260502113043 | -1 | 180 | 3.2 | 9.7 | 0.00 | 0.00 | 0.00 | 85 | 1010.3 |
| 20260502111535 | -1 | 190 | 4.8 | 9.7 | 0.00 | 0.00 | 0.00 | 85 | 1010.2 |
| 20260502110036 | -1 | 187 | 4.8 | 9.7 | 0.00 | 0.00 | 0.00 | 85 | 1010.3 |
| 20260502104534 | -1 | 210 | 3.2 | 8.0 | 0.00 | 0.00 | 0.00 | 85 | 1010.5 |
| 20260502103027 | -1 | 167 | 3.2 | 6.4 | 0.00 | 0.00 | 0.00 | 85 | 1010.8 |
| 20260502101527 | -1 | 160 | 1.6 | 4.8 | 0.00 | 0.00 | 0.00 | 84 | 1011.0 |
| 20260502091516 | 0 | 196 | 1.6 | 4.8 | 0.00 | 0.00 | 0.00 | 79 | 1011.3 |
| 20260502064547 | 2 | 162 | 0.0 | 4.8 | 0.00 | 0.00 | 0.00 | 72 | 1012.9 |
| 20260502063038 | 2 | 231 | 0.0 | 3.2 | 0.00 | 0.00 | 0.00 | 69 | 1013.0 |
| 20260502061537 | 3 | 220 | 0.0 | 4.8 | 0.00 | 0.00 | 0.00 | 69 | 1012.9 |
| 20260502060041 | 3 | 218 | 0.0 | 4.8 | 0.00 | 0.00 | 0.00 | 68 | 1013.1 |
| 20260502054541 | 3 | 145 | 0.0 | 4.8 | 0.00 | 0.00 | 0.00 | 65 | 1013.2 |
| 20260502053026 | 5 | 230 | 0.0 | 6.4 | 0.00 | 0.00 | 0.00 | 61 | 1013.3 |
| 20260502051524 | 5 | 235 | 3.2 | 11.3 | 0.00 | 0.00 | 0.00 | 59 | 1013.1 |
| 20260502050021 | 5 | 204 | 8.0 | 12.9 | 0.00 | 0.00 | 0.00 | 58 | 1013.1 |
| 20260502044519 | 5 | 150 | 3.2 | 11.3 | 0.00 | 0.00 | 0.00 | 60 | 1013.1 |
| 20260502043018 | 5 | 209 | 4.8 | 9.7 | 0.00 | 0.00 | 0.00 | 60 | 1013.2 |
| 20260502041529 | 5 | 184 | 3.2 | 11.3 | 0.00 | 0.00 | 0.00 | 61 | 1013.3 |
| 20260502040037 | 5 | 200 | 1.6 | 6.4 | 0.00 | 0.00 | 0.00 | 62 | 1013.3 |
| 20260502034516 | 5 | 168 | 1.6 | 6.4 | 0.00 | 0.00 | 0.00 | 60 | 1013.2 |
| 20260502033026 | 6 | 162 | 3.2 | 6.4 | 0.00 | 0.00 | 0.00 | 56 | 1013.4 |
| 20260502031515 | 6 | 168 | 1.6 | 4.8 | 0.00 | 0.00 | 0.00 | 55 | 1013.5 |
| 20260502030015 | 7 | 168 | 3.2 | 6.4 | 0.00 | 0.00 | 0.00 | 54 | 1013.5 |
| 20260502024514 | 7 | 168 | 0.0 | 3.2 | 0.00 | 0.00 | 0.00 | 55 | 1013.4 |
| 20260502023026 | 7 | 167 | 1.6 | 3.2 | 0.00 | 0.00 | 0.00 | 56 | 1013.2 |
| 20260502021512 | 8 | 43 | 0.0 | 0.0 | 0.00 | 0.00 | 0.00 | 49 | 1013.1 |
| 20260502020013 | 9 | 43 | 0.0 | 0.0 | 0.00 | 0.00 | 0.00 | 45 | 1012.9 |
| 20260502014511 | 11 | 43 | 0.0 | 0.0 | 0.00 | 0.00 | 0.00 | 41 | 1012.8 |
| 20260502013011 | 12 | 42 | 0.0 | 0.0 | 0.00 | 0.00 | 0.00 | 39 | 1012.7 |
| 20260502011618 | 13 | 42 | 0.0 | 1.6 | 0.00 | 0.00 | 0.00 | 39 | 1012.7 |
| 20260502010013 | 13 | 41 | 0.0 | 4.8 | 0.00 | 0.00 | 0.00 | 36 | 1012.7 |
| 20260502004510 | 13 | 38 | 3.2 | 8.0 | 0.00 | 0.00 | 0.00 | 34 | 1012.7 |
| 20260502003009 | 13 | 14 | 6.4 | 8.0 | 0.00 | 0.00 | 0.00 | 34 | 1012.7 |
| 20260502001510 | 13 | 28 | 4.8 | 11.3 | 0.00 | 0.00 | 0.00 | 34 | 1012.7 |
| 20260502000007 | 13 | 40 | 8.0 | 12.9 | 0.00 | 0.00 | 0.00 | 34 | 1012.7 |
| 20260501234511 | 13 | 325 | 3.2 | 8.0 | 0.00 | 0.00 | 0.00 | 35 | 1012.9 |
| 20260501233004 | 14 | 29 | 3.2 | 9.7 | 0.00 | 0.00 | 0.00 | 33 | 1013.0 |
| 20260501231628 | 13 | 337 | 0.0 | 12.9 | 0.00 | 0.00 | 0.00 | 35 | 1013.1 |
| 20260501230122 | 13 | 28 | 8.0 | 14.5 | 0.00 | 0.00 | 0.00 | 35 | 1013.2 |
| 20260501224608 | 13 | 19 | 12.9 | 17.7 | 0.00 | 0.00 | 0.00 | 34 | 1013.1 |
| 20260501223058 | 13 | 328 | 12.9 | 22.5 | 0.00 | 0.00 | 0.00 | 36 | 1013.2 |
| 20260501221610 | 13 | 360 | 3.2 | 14.5 | 0.00 | 0.00 | 0.00 | 35 | 1013.2 |
| 20260501220104 | 13 | 317 | 8.0 | 17.7 | 0.00 | 0.00 | 0.00 | 35 | 1013.3 |
| 20260501214553 | 13 | 27 | 11.3 | 16.1 | 0.00 | 0.00 | 0.00 | 36 | 1013.3 |
| 20260501213051 | 12 | 318 | 9.7 | 20.9 | 0.00 | 0.00 | 0.00 | 36 | 1013.5 |
| 20260501211548 | 12 | 318 | 6.4 | 19.3 | 0.00 | 0.00 | 0.00 | 36 | 1013.7 |
| 20260501210046 | 12 | 47 | 8.0 | 16.1 | 0.00 | 0.00 | 0.00 | 37 | 1013.7 |
| 20260501204546 | 12 | 73 | 4.8 | 12.9 | 0.00 | 0.00 | 0.00 | 38 | 1013.9 |
| 20260501203043 | 12 | 19 | 8.0 | 16.1 | 0.00 | 0.00 | 0.00 | 40 | 1014.0 |
| 20260501201543 | 12 | 338 | 6.4 | 17.7 | 0.00 | 0.00 | 0.00 | 39 | 1014.2 |
| 20260501200040 | 12 | 158 | 8.0 | 22.5 | 0.00 | 0.00 | 0.00 | 41 | 1014.1 |
| 20260501194539 | 11 | 346 | 11.3 | 29.0 | 0.00 | 0.00 | 0.00 | 39 | 1014.4 |
| 20260501193039 | 11 | 344 | 4.8 | 17.7 | 0.00 | 0.00 | 0.00 | 40 | 1014.4 |
| 20260501191536 | 11 | 358 | 19.3 | 25.7 | 0.00 | 0.00 | 0.00 | 41 | 1014.5 |
| 20260501190133 | 11 | 29 | 14.5 | 25.7 | 0.00 | 0.00 | 0.00 | 42 | 1014.5 |
| 20260501184534 | 11 | 58 | 4.8 | 24.1 | 0.00 | 0.00 | 0.00 | 44 | 1014.6 |
| 20260501183030 | 11 | 336 | 12.9 | 24.1 | 0.00 | 0.00 | 0.00 | 43 | 1014.6 |
| 20260501181527 | 10 | 15 | 6.4 | 19.3 | 0.00 | 0.00 | 0.00 | 43 | 1014.7 |
| 20260501180026 | 10 | 16 | 12.9 | 20.9 | 0.00 | 0.00 | 0.00 | 45 | 1014.8 |
| 20260501174523 | 10 | 24 | 9.7 | 19.3 | 0.00 | 0.00 | 0.00 | 47 | 1015.1 |
| 20260501173024 | 9 | 327 | 4.8 | 19.3 | 0.00 | 0.00 | 0.00 | 50 | 1015.2 |
| 20260501171523 | 8 | 332 | 6.4 | 17.7 | 0.00 | 0.00 | 0.00 | 50 | 1015.2 |
| 20260501170015 | 8 | 52 | 8.0 | 17.7 | 0.00 | 0.00 | 0.00 | 51 | 1015.3 |
| 20260501164512 | 7 | 346 | 8.0 | 14.5 | 0.00 | 0.00 | 0.00 | 54 | 1015.4 |
| 20260501163010 | 7 | 349 | 4.8 | 12.9 | 0.00 | 0.00 | 0.00 | 57 | 1015.4 |
| 20260501161509 | 7 | 339 | 4.8 | 11.3 | 0.00 | 0.00 | 0.00 | 56 | 1015.5 |
| 20260501160004 | 7 | 57 | 1.6 | 4.8 | 0.00 | 0.00 | 0.00 | 59 | 1015.5 |
| 20260501154501 | 6 | 288 | 3.2 | 9.7 | 0.00 | 0.00 | 0.00 | 59 | 1015.6 |
| 20260501153110 | 5 | 337 | 1.6 | 8.0 | 0.00 | 0.00 | 0.00 | 61 | 1015.7 |